Flag for Canada Weather past 2 weeks in Rouyn-Noranda, Quebec, Canada

Now
79 °F

Thunderstorms. Partly sunny.


Feels Like: 81 °F
Forecast: 61 / 86 °F
Wind: 7 mph from North

Location: Rouyn Airport

Current Time: Jul 28, 2015 at 4:22:00 PM

Latest Report: Jul 28, 2015 at 4:00 PM


Visibility: 15 mi

Pressure: 29.94 "Hg

Humidity: 65%

Dew point: 66 °F

Location of Rouyn-NorandaLocation

Historic Weather in Rouyn-Noranda — Graph

°F

Rouyn-Noranda temperature yesterday

Maximum temperature yesterday: 84 °F (at 1:00 PM)
Minimum temperature yesterday: 57 °F (at 2:00 AM)
Average temperature yesterday: 71 °F

Past Weeks' High & Low Weather Summary

 TemperatureHumidityPressure
High90 °F (Jul 28, 2:00 PM)100% (Jul 15, 4:00 AM)30.13 "Hg (Jul 15, 4:00 AM)
Low36 °F (Jul 15, 5:00 AM)34% (Jul 16, 4:00 PM)29.42 "Hg (Jul 20, 5:00 PM)
Average64 °F77%29.81 "Hg
* Reported Jul 13 3:00 PM — Jul 28 3:00 PM, Rouyn-Noranda, Weather by CustomWeather, © 2015

Note: Actual official high and low records may vary slightly from our data, if they occured in-between our weather recording intervals... More about our weather records

Advertising

Rouyn-Noranda weather history for previous 24 hours

 ConditionsComfort  
Time TempWeatherWind HumidityBarometerVisibility
3:00 PM
Tue, Jul 28
88 °FScattered showers. Partly sunny.12 mph52%29.91 "Hg15 mi
2:00 PM90 °FScattered clouds.9 mph49%29.93 "Hg15 mi
1:00 PM86 °FPassing clouds.9 mph55%29.96 "Hg15 mi
12:00 PM84 °FPassing clouds.7 mph55%29.97 "Hg15 mi
11:00 AM81 °FPassing clouds.8 mph62%29.95 "Hg15 mi
10:00 AM77 °FPassing clouds.3 mph65%29.97 "Hg15 mi
9:00 AM72 °FPassing clouds.No wind78%30.01 "Hg15 mi
8:00 AM63 °FPartly sunny.2 mph100%29.99 "Hg15 mi
7:00 AM57 °FFog.No wind100%30.00 "Hg15 mi
6:00 AM57 °FPartly cloudy.2 mph94%29.98 "Hg15 mi
5:00 AM57 °FPassing clouds.2 mph94%29.98 "Hg15 mi
4:00 AM57 °FPassing clouds.No wind100%29.98 "Hg15 mi
3:00 AM59 °FPassing clouds.No wind94%29.98 "Hg15 mi
2:00 AM59 °FPassing clouds.No wind100%29.98 "Hg15 mi
1:00 AM63 °FFog.No wind94%29.97 "Hg15 mi
12:00 AM66 °FPassing clouds.No wind94%29.96 "Hg15 mi
11:00 PM
Mon, Jul 27
68 °FPassing clouds.3 mph88%29.96 "Hg15 mi
10:00 PM68 °FPassing clouds.No wind94%29.96 "Hg15 mi
9:00 PM70 °FBroken clouds.No wind88%29.95 "Hg15 mi
8:00 PM68 °FPartly sunny.5 mph94%29.95 "Hg15 mi
7:00 PM70 °FBroken clouds.2 mph83%29.95 "Hg15 mi
6:00 PM81 °FScattered showers. Broken clouds.6 mph51%29.94 "Hg15 mi
5:00 PM82 °FBroken clouds.9 mph45%29.94 "Hg15 mi
4:00 PM84 °FBroken clouds.9 mph43%29.95 "Hg15 mi
Weather by CustomWeather, © 2015

See weather overviewHow to use our weather pages